Weather History for Canberra, Capital Territory

Change the Weather History Date:

Saturday, August 9, 2014

  Actual Average Record
Temperature  
Mean Temperature 39 °F -  
Max Temperature 55 °F 57 °F - ()
Min Temperature 23 °F 35 °F - ()
Degree Days  
Heating Degree Days 26    
Moisture  
Dew Point 33 °F    
Average Humidity 85    
Maximum Humidity 100    
Minimum Humidity 44    
Precipitation  
Precipitation 0.00 in 0.07 in - ()
Sea Level Pressure  
Sea Level Pressure 30.35 in    
Wind  
Wind Speed 3 mph ()    
Max Wind Speed 17 mph    
Max Gust Speed -    
Visibility 3.9 miles    
Events Fog    
T = Trace of Precipitation, MM = Missing Value Source: Averaged Metar Reports

Daily Weather History Graph

Daily Weather History Graph

Search for Another Location

Airport:

Trip Planner

Search our weather history database for the weather conditions in past years. The results will help you decide how hot, cold, wet, or windy it might be!

Date:

Astronomy

Aug. 09, 2014 Rise Set
Actual Time 6:51 AM AEST 5:26 PM AEST
Civil Twilight 6:24 AM AEST 5:53 PM AEST
Nautical Twilight 5:54 AM AEST 6:23 PM AEST
Astronomical Twilight 5:24 AM AEST 6:53 PM AEST
Moon 3:49 PM AEST (8/9) 5:00 AM AEST (8/9)
Length of Visible Light 11h 28m
Length of Day
10h 35m
Waxing Gibbous, 96% of the Moon is Illuminated
Aug 9
Waxing Gibbous
Aug 11
Full
Aug 17
Last Quarter
Aug 26
New
Sep 2
First Quarter

Hourly Weather History & Observations

Time (AEST) Temp. Windchill Dew Point Humidity Pressure Visibility Wind Dir Wind Speed Gust Speed Precip Events Conditions
12:00 AM 28 °F - 26 °F 91% 30.45 in 1 mi Calm Calm - -  
12:00 AM 28.4 °F - 26.6 °F 93% 30.42 in 1.0 mi Calm Calm - N/A   Unknown
12:11 AM 28.4 °F - 26.6 °F 93% 30.42 in 5.0 mi Calm Calm - N/A   Unknown
12:20 AM 28.4 °F - 26.6 °F 93% 30.42 in - Calm Calm - N/A   Unknown
12:30 AM 28.4 °F - 28.4 °F 100% 30.39 in 1.7 mi Calm Calm - N/A   Unknown
1:00 AM 29 °F - 27 °F 91% 30.45 in - Calm Calm - -  
1:00 AM 28.4 °F - 26.6 °F 93% 30.39 in 6.2 mi Calm Calm - N/A   Unknown
1:20 AM 28.4 °F - 26.6 °F 93% 30.42 in 3.7 mi Calm Calm - N/A   Unknown
1:23 AM 28.4 °F - 26.6 °F 93% 30.39 in 0.5 mi Calm Calm - N/A   Unknown
1:30 AM 28.4 °F 24.6 °F 26.6 °F 93% 30.39 in 0.3 mi NNE 3.5 mph - N/A   Unknown
1:53 AM 26.6 °F 22.6 °F 26.6 °F 100% 30.39 in 6.2 mi North 3.5 mph - N/A   Unknown
2:03 AM 26.6 °F - 24.8 °F 93% 30.39 in 6.2 mi NW 1.2 mph - N/A   Unknown
2:10 AM 24.8 °F - 23.0 °F 93% 30.39 in 1.0 mi Calm Calm - N/A   Unknown
2:30 AM 28.4 °F - 28.4 °F 100% 30.39 in 0.1 mi Calm Calm - N/A   Unknown
3:00 AM 26 °F - 26 °F 100% 30.43 in 0 mi Calm Calm - -  
3:00 AM 26.6 °F - 26.6 °F 100% 30.39 in 0.1 mi Calm Calm - N/A   Unknown
3:30 AM 24.8 °F - 24.8 °F 100% 30.39 in 0.2 mi Calm Calm - N/A   Scattered Clouds
4:00 AM 26 °F - 25 °F 96% 30.42 in - Calm Calm - -  
4:00 AM 24.8 °F - 24.8 °F 100% 30.39 in 0.2 mi Calm Calm - N/A   Unknown
4:04 AM 26.6 °F - 24.8 °F 93% 30.39 in 0.9 mi Calm Calm - N/A   Unknown
4:15 AM 26.6 °F 21.2 °F 26.6 °F 100% 30.36 in 6.2 mi North 4.6 mph - N/A   Unknown
4:30 AM 24.8 °F - 24.8 °F 100% 30.36 in 6.2 mi North 1.2 mph - N/A   Mostly Cloudy
4:53 AM 24.8 °F - 24.8 °F 100% 30.36 in 0.5 mi Calm Calm - N/A   Overcast
5:00 AM 26.6 °F - 24.8 °F 93% 30.36 in 0.1 mi Calm Calm - N/A   Overcast
5:20 AM 26.6 °F - 26.6 °F 100% 30.36 in 0.7 mi Calm Calm - N/A   Mostly Cloudy
5:24 AM 26.6 °F - 26.6 °F 100% 30.36 in - Calm Calm - N/A   Mostly Cloudy
5:30 AM 24.8 °F - 24.8 °F 100% 30.36 in 0.7 mi Calm Calm - N/A   Mostly Cloudy
6:00 AM 24 °F - 24 °F 99% 30.42 in 0 mi Calm Calm - -   Overcast
6:00 AM 24.8 °F - 23.0 °F 93% 30.36 in 0.2 mi Calm Calm - N/A Fog Light Freezing Fog
6:30 AM 24.8 °F - 24.8 °F 100% 30.39 in 0.2 mi Calm Calm - N/A Fog Light Freezing Fog
7:00 AM 25 °F - 25 °F 98% 30.43 in - Calm Calm - -  
7:00 AM 24.8 °F - 24.8 °F 100% 30.39 in 0.2 mi Calm Calm - N/A Fog Light Freezing Fog
7:23 AM 26.6 °F - 24.8 °F 93% 30.39 in 5.0 mi Calm Calm - N/A   Mostly Cloudy
7:28 AM 26.6 °F - 26.6 °F 100% 30.39 in 5.6 mi Calm Calm - N/A   Mostly Cloudy
8:00 AM 28.4 °F - 28.4 °F 100% 30.39 in 5.6 mi Calm Calm - N/A   Mostly Cloudy
8:30 AM 30.2 °F 26.7 °F 30.2 °F 100% 30.39 in 2.5 mi North 3.5 mph - N/A Fog Light Freezing Fog
9:00 AM 32 °F - 32 °F 100% 30.44 in 4 mi North 3.5 mph - -   Overcast
9:00 AM 32.0 °F 28.7 °F 32.0 °F 100% 30.39 in 4.3 mi North 3.5 mph - N/A   Mostly Cloudy
9:30 AM 35.6 °F - 35.6 °F 100% 30.39 in 5.0 mi North 2.3 mph - N/A   Haze
9:34 AM 35.6 °F - 35.6 °F 100% 30.39 in 3.7 mi North 1.2 mph - N/A   Overcast
10:00 AM 39 °F - 39 °F 99% 30.44 in - East 1.2 mph - -  
10:00 AM 39.2 °F - 39.2 °F 100% 30.39 in 5.6 mi East 1.2 mph - N/A   Haze
10:30 AM 42.8 °F - 39.2 °F 87% 30.39 in 6.2 mi NNW 1.2 mph - N/A Fog Patches of Fog
11:00 AM 44.6 °F 42.2 °F 37.4 °F 76% 30.39 in 6.2 mi NNW 4.6 mph - N/A   Partly Cloudy
11:30 AM 48.2 °F - 39.2 °F 71% 30.36 in 6.2 mi WNW 4.6 mph - N/A   Mostly Cloudy
12:00 PM 51 °F - 40 °F 57% 30.39 in - NW 10.4 mph - -  
12:00 PM 51.8 °F - 41.0 °F 67% 30.36 in 6.2 mi NW 10.4 mph - N/A   Mostly Cloudy
12:30 PM 51.8 °F - 39.2 °F 62% 30.33 in 6.2 mi NW 10.4 mph - N/A   Scattered Clouds
1:00 PM 53 °F - 40 °F 50% 30.35 in - WNW 10.4 mph - -  
1:00 PM 53.6 °F - 39.2 °F 58% 30.30 in 6.2 mi WNW 10.4 mph - N/A   Scattered Clouds
1:30 PM 53.6 °F - 41.0 °F 62% 30.30 in - NW 10.4 mph - N/A   Clear
2:00 PM 55.4 °F - 41.0 °F 58% 30.27 in - NW 11.5 mph - N/A   Clear
2:30 PM 53.6 °F - 39.2 °F 58% 30.27 in - North 11.5 mph - N/A   Clear
3:00 PM 55 °F - 39 °F 44% 30.31 in - NNW 12.7 mph - -  
3:00 PM 55.4 °F - 39.2 °F 54% 30.27 in - NNW 12.7 mph - N/A   Clear
3:30 PM 53.6 °F - 39.2 °F 58% 30.27 in - NNW 15.0 mph - N/A   Clear
4:00 PM 52 °F - 38 °F 48% 30.30 in - NNW 15.0 mph - -  
4:00 PM 51.8 °F - 37.4 °F 58% 30.27 in - NNW 15.0 mph - N/A   Clear
4:30 PM 51.8 °F - 39.2 °F 62% 30.27 in 6.2 mi North 17.3 mph - N/A   Scattered Clouds
5:00 PM 50.0 °F - 39.2 °F 66% 30.27 in 6.2 mi North 11.5 mph - N/A   Mostly Cloudy
5:30 PM 48.2 °F - 39.2 °F 71% 30.27 in 6.2 mi North 11.5 mph - N/A   Mostly Cloudy
6:00 PM 47 °F - 39 °F 67% 30.31 in - North 10.4 mph - -  
6:00 PM 46.4 °F 41.5 °F 39.2 °F 76% 30.27 in 6.2 mi North 10.4 mph - N/A   Mostly Cloudy
6:30 PM 46.4 °F 41.5 °F 39.2 °F 76% 30.27 in 6.2 mi North 10.4 mph - N/A   Unknown
7:00 PM 46 °F - 40 °F 72% 30.31 in - North 11.5 mph - -  
7:00 PM 46.4 °F 41.1 °F 39.2 °F 76% 30.27 in 6.2 mi North 11.5 mph - N/A   Unknown
7:30 PM 46.4 °F 41.5 °F 39.2 °F 76% 30.27 in 6.2 mi North 10.4 mph - N/A   Unknown
8:00 PM 44.6 °F 39.2 °F 39.2 °F 81% 30.27 in 6.2 mi North 10.4 mph - N/A   Unknown
8:30 PM 44.6 °F 40.2 °F 39.2 °F 81% 30.30 in 6.2 mi North 8.1 mph - N/A   Unknown
9:00 PM 44 °F - 39 °F 76% 30.33 in - North 11.5 mph - -  
9:00 PM 44.6 °F 38.8 °F 39.2 °F 81% 30.27 in 6.2 mi North 11.5 mph - N/A   Unknown
9:30 PM 44.6 °F 39.2 °F 39.2 °F 81% 30.27 in 6.2 mi North 10.4 mph - N/A   Unknown
10:00 PM 43 °F - 39 °F 80% 30.32 in - NNW 8.1 mph - -  
10:00 PM 42.8 °F 38.0 °F 39.2 °F 87% 30.27 in 6.2 mi NNW 8.1 mph - N/A   Unknown
10:30 PM 42.8 °F 37.0 °F 39.2 °F 87% 30.27 in 6.2 mi North 10.4 mph - N/A   Unknown
11:00 PM 42.8 °F 37.0 °F 39.2 °F 87% 30.27 in 6.2 mi North 10.4 mph - N/A   Unknown
11:30 PM 42.8 °F 36.6 °F 37.4 °F 81% 30.27 in 6.2 mi North 11.5 mph - N/A   Unknown